Weather History for KPKD - November, 2011

Change the Weather History Date:

Friday, November 18, 2011

  Actual Average Record
Temperature  
Mean Temperature 24 °F -  
Max Temperature 27 °F 33 °F 72 °F (1953)
Min Temperature 19 °F 17 °F -7 °F (1989)
Degree Days  
Heating Degree Days 41    
Moisture  
Dew Point 20 °F    
Average Humidity 80    
Maximum Humidity 93    
Minimum Humidity 53    
Precipitation  
Precipitation 0.05 in - - ()
Sea Level Pressure  
Sea Level Pressure 29.68 in    
Wind  
Wind Speed 6 mph (East)    
Max Wind Speed 17 mph    
Max Gust Speed -    
Visibility 6 miles    
Events Fog , Snow    
Averages and records for this station are not official NWS values.
T = Trace of Precipitation, MM = Missing Value Source: NWS Daily Summary

Daily Weather History Graph

Daily Weather History Graph

Search for Another Location

Airport or City:

Trip Planner

Search our weather history database for the weather conditions in past years. The results will help you decide how hot, cold, wet, or windy it might be!

Date:

Astronomy

Nov. 18, 2011 Rise Set
Actual Time 7:27 AM CST 4:43 PM CST
Civil Twilight 6:53 AM CST 5:16 PM CST
Nautical Twilight 6:16 AM CST 5:53 PM CST
Astronomical Twilight 5:40 AM CST 6:29 PM CST
Moon No Moon Rise 12:55 PM CST (11/18)
Length of Visible Light 10h 22m
Length of Day
9h 15m
Waning Gibbous, 49% of the Moon is Illuminated
Nov 18
Waning Gibbous
Nov 25
New
Dec 2
First Quarter
Dec 10
Full
Dec 17
Last Quarter

Hourly Weather History & Observations

Time (CST) Temp. Windchill Dew Point Humidity Pressure Visibility Wind Dir Wind Speed Gust Speed Precip Events Conditions
12:53 AM 24.1 °F 13.7 °F 9.0 °F 53% 29.76 in 10.0 mi ESE 10.4 mph - N/A   Mostly Cloudy
1:53 AM 24.1 °F 15.2 °F 10.0 °F 55% 29.72 in 10.0 mi ESE 8.1 mph - N/A   Partly Cloudy
2:53 AM 24.8 °F 16.9 °F 10.4 °F 54% 29.64 in 10.0 mi East 6.9 mph - N/A   Mostly Cloudy
3:53 AM 23.0 °F 15.8 °F 12.9 °F 65% 29.69 in 10.0 mi East 5.8 mph - N/A   Clear
4:53 AM 21.9 °F 13.4 °F 12.0 °F 66% 29.70 in 10.0 mi ENE 6.9 mph - N/A   Clear
5:53 AM 21.2 °F 12.6 °F 12.2 °F 68% 29.62 in 10.0 mi East 6.9 mph - N/A   Clear
6:53 AM 21.9 °F 14.5 °F 12.0 °F 66% 29.69 in 10.0 mi East 5.8 mph - N/A   Clear
7:53 AM 21.9 °F 14.5 °F 12.9 °F 68% 29.70 in 10.0 mi East 5.8 mph - N/A   Mostly Cloudy
8:53 AM 23.0 °F 14.7 °F 12.9 °F 65% 29.68 in 10.0 mi ENE 6.9 mph - N/A   Overcast
9:53 AM 24.8 °F 19.1 °F 14.0 °F 64% 29.60 in 10.0 mi ENE 4.6 mph - N/A   Overcast
10:53 AM 25.0 °F 17.1 °F 16.0 °F 69% 29.69 in 10.0 mi North 6.9 mph - N/A   Overcast
12:53 PM 27.0 °F 23.0 °F 18.0 °F 69% 29.68 in 5.0 mi East 3.5 mph - 0.00 in Snow Light Snow
1:02 PM 26.6 °F - 19.4 °F 74% 29.61 in 1.8 mi Calm Calm - 0.00 in Snow Light Snow
1:22 PM 26.6 °F - 21.2 °F 80% 29.62 in 1.2 mi Calm Calm - 0.00 in Snow Light Snow
1:35 PM 26.6 °F 22.6 °F 21.2 °F 80% 29.62 in 0.8 mi ESE 3.5 mph - 0.00 in Snow Light Snow
1:53 PM 26.1 °F 20.5 °F 21.9 °F 84% 29.68 in 0.8 mi SE 4.6 mph - 0.01 in Snow Light Snow
2:20 PM 26.6 °F 21.2 °F 23.0 °F 86% 29.61 in 0.5 mi SE 4.6 mph - 0.02 in Fog , Snow Snow
2:28 PM 26.6 °F 20.0 °F 23.0 °F 86% 29.61 in 0.8 mi SSE 5.8 mph - 0.02 in Snow Light Snow
2:40 PM 26.6 °F 21.2 °F 23.0 °F 86% 29.61 in 1.0 mi SE 4.6 mph - 0.02 in Snow Light Snow
2:53 PM 26.1 °F - 24.1 °F 92% 29.69 in 1.0 mi Calm Calm - 0.02 in Snow Light Snow
3:00 PM 26.6 °F - 24.8 °F 93% 29.62 in 0.5 mi Calm Calm - 0.01 in Fog , Snow Snow
3:15 PM 26.6 °F - 24.8 °F 93% 29.62 in 1.2 mi Calm Calm - 0.01 in Snow Light Snow
3:28 PM 26.6 °F - 24.8 °F 93% 29.62 in 1.2 mi Calm Calm - 0.01 in Snow Light Snow
3:43 PM 26.6 °F - 24.8 °F 93% 29.62 in 3.0 mi Calm Calm - 0.01 in Snow Light Snow
3:53 PM 27.0 °F - 24.1 °F 89% 29.69 in 2.5 mi Calm Calm - 0.01 in Snow Light Snow
4:12 PM 26.6 °F - 24.8 °F 93% 29.64 in 4.0 mi Calm Calm - 0.01 in Snow Light Snow
4:21 PM 26.6 °F - 24.8 °F 93% 29.65 in 5.0 mi Calm Calm - 0.01 in Snow Light Snow
4:53 PM 27.0 °F - 24.1 °F 89% 29.72 in 4.0 mi Calm Calm - 0.01 in Snow Light Snow
5:16 PM 26.6 °F 22.6 °F 24.8 °F 93% 29.66 in 3.0 mi WNW 3.5 mph - 0.00 in Snow Light Snow
5:53 PM 27.0 °F - 24.1 °F 89% 29.74 in 10.0 mi Calm Calm - 0.00 in   Overcast
6:53 PM 27.0 °F - 24.1 °F 89% 29.74 in 10.0 mi Calm Calm - N/A   Overcast
7:13 PM 26.6 °F 22.6 °F 24.8 °F 93% 29.68 in 10.0 mi West 3.5 mph - N/A   Overcast
7:53 PM 27.0 °F 23.0 °F 24.1 °F 89% 29.76 in 10.0 mi West 3.5 mph - N/A   Overcast
8:48 PM 26.6 °F 18.2 °F 23.0 °F 86% 29.70 in 10.0 mi WNW 8.1 mph - N/A   Overcast
8:53 PM 27.0 °F 17.3 °F 23.0 °F 85% 29.78 in 10.0 mi WNW 10.4 mph - N/A   Overcast
9:53 PM 24.8 °F 16.1 °F 21.2 °F 86% 29.72 in 10.0 mi WNW 8.1 mph - N/A   Scattered Clouds
10:53 PM 23.0 °F 9.2 °F 18.0 °F 81% 29.83 in 10.0 mi WNW 17.3 mph - N/A   Partly Cloudy
11:53 PM 19.9 °F 7.3 °F 16.0 °F 85% 29.83 in 10.0 mi WNW 12.7 mph - N/A   Scattered Clouds